Stevenson, Washington, United States (98648)
Lat: 45.70N, Lon: 121.88W
Wx Zone: WAZ023
Local Info
Past Weather Observations for Today

NOTE: This archive is for the closest National Weather Service station to Stevenson. Information may differ from the station used for current weather conditions.

Time Weather Temperature Dewpoint Humidity Pressure Winds Precip Visibility
18:53
Overcast
Light Rain
50°F / 10°C 48°F / 9°C 94% 29.8 in
(1009 mb)
E 8.1 mph
(E 13 kph)
0.05 in
(1.27 mm)
9SM
18:14
Overcast
Light Rain
52°F / 11°C 48°F / 9°C 88% 29.8 in
(1009 mb)
E 6.9 mph
(E 11 kph)
0.01 in
(0.25 mm)
7SM
18:05
Overcast
Light Rain
52°F / 11°C 48°F / 9°C 88% 29.8 in
(1009 mb)
E 6.9 mph
(E 11 kph)
0.01 in
(0.25 mm)
7SM
17:53
Overcast
Light Rain
52°F / 11°C 48°F / 9°C 88% 29.8 in
(1009 mb)
E 8.1 mph
(E 13 kph)
0.07 in
(1.78 mm)
5SM
17:43
Overcast
Light Rain
52°F / 11°C 50°F / 10°C 94% 29.8 in
(1009 mb)
E 6.9 mph
(E 11 kph)
0.05 in
(1.27 mm)
4SM
16:53
Overcast
Light Rain
54°F / 12°C 50°F / 10°C 88% 29.83 in
(1010 mb)
E 3.5 mph
(E 6 kph)
0.02 in
(0.51 mm)
9SM
15:53
Overcast
Light Rain
55°F / 13°C 48°F / 9°C 77% 29.86 in
(1011 mb)
S 5.8 mph
(S 9 kph)
0.01 in
(0.25 mm)
10SM
14:53
Overcast
Light Rain
55°F / 13°C 48°F / 9°C 77% 29.89 in
(1012 mb)
S 5.8 mph
(S 9 kph)
0.01 in
(0.25 mm)
10SM
13:53
Overcast
Light Rain
55°F / 13°C 46°F / 8°C 72% 29.92 in
(1013 mb)
SW 10.4 mph
(SW 17 kph)
0.00 in
(0.00 mm)
10SM
12:53
Overcast
Light Rain
55°F / 13°C 45°F / 7°C 67% 29.92 in
(1013 mb)
SSE 8.1 mph
(SSE 13 kph)
0.00 in
(0.00 mm)
10SM
11:53
Overcast
55°F / 13°C 45°F / 7°C 67% 29.92 in
(1013 mb)
SW 15 mph
(SW 24 kph)
- 10SM
10:53
Overcast
55°F / 13°C 45°F / 7°C 67% 29.92 in
(1013 mb)
SW 17.3 mph
(SW 28 kph)
- 10SM
10:24
Mostly Cloudy
55°F / 13°C 45°F / 7°C 67% 29.95 in
(1014 mb)
SW 10.4 mph
(SW 17 kph)
- 10SM
09:53
Overcast
54°F / 12°C 45°F / 7°C 72% 29.95 in
(1014 mb)
SW 12.7 mph
(SW 20 kph)
0.00 in
(0.00 mm)
10SM
08:53
Overcast
48°F / 9°C 45°F / 7°C 87% 29.95 in
(1014 mb)
Calm 0.01 in
(0.25 mm)
10SM
07:53
Overcast
Light Rain
46°F / 8°C 45°F / 7°C 93% 29.95 in
(1014 mb)
Calm 0.02 in
(0.51 mm)
9SM
07:23
Overcast
Light Rain
48°F / 9°C 43°F / 6°C 82% 29.95 in
(1014 mb)
Variable 4.6 mph
(Variable 7 kph)
0.02 in
(0.51 mm)
9SM
06:53
Overcast
Light Rain
48°F / 9°C 43°F / 6°C 82% 29.98 in
(1015 mb)
S 5.8 mph
(S 9 kph)
0.01 in
(0.25 mm)
7SM
05:53
Overcast
Light Rain
46°F / 8°C 43°F / 6°C 87% 29.98 in
(1015 mb)
Calm 0.01 in
(0.25 mm)
9SM
04:53
Overcast
Light Rain
46°F / 8°C 43°F / 6°C 87% 29.98 in
(1015 mb)
SW 6.9 mph
(SW 11 kph)
0.02 in
(0.51 mm)
8SM
03:53
Overcast
Light Rain
46°F / 8°C 43°F / 6°C 87% 29.98 in
(1015 mb)
SW 11.5 mph
(SW 19 kph)
0.00 in
(0.00 mm)
10SM
02:53
Overcast
Light Rain
46°F / 8°C 41°F / 5°C 82% 29.98 in
(1015 mb)
SW 9.2 mph
(SW 15 kph)
0.02 in
(0.51 mm)
10SM
01:53
Overcast
Light Rain
46°F / 8°C 41°F / 5°C 82% 29.98 in
(1015 mb)
S 10.4 mph
(S 17 kph)
0.00 in
(0.00 mm)
10SM
00:53
Overcast
Light Rain
48°F / 9°C 43°F / 6°C 82% 29.98 in
(1015 mb)
SSE 12.7 mph
(SSE 20 kph)
0.01 in
(0.25 mm)
10SM
00:00
Overcast
Light Rain
48°F / 9°C 43°F / 6°C 82% 29.98 in
(1015 mb)
SW 12.7 mph
(SW 20 kph)
0.00 in
(0.00 mm)
10SM
Time Weather Temperature Dewpoint Humidity Pressure Winds Precip Visibility


Weather for websites

WeatherForYou.com, LLC is not responsible for any damages or problems caused by this service. Current weather conditions are obtained from the closest station including government and personal stations which may have varying degrees of accuracy. Weather forecasts are derived from the NOAA NDFD. Like all things, this site belongs to Jesus Christ... He just trusts me to maintain it. If you have any questions or comments email webmaster@weatherforyou.com

Copyright © 2014, WeatherForYou.com LLC. All rights reserved.